Back to catalog

THURAYA 4

AliveCommunicationsGEO
NORAD 62483·PAYLOAD·🇦🇪 UAE

Launched Jan 4, 2025 from Cape Canaveral Space Force Station

Loading…

TLE

FreshSource: Space-Track

Epoch: Sep 14, 2026, 14:00 UTC

1 62483U 25001A   26257.58394105  .00000131  00000-0  00000-0 0  9993
2 62483   0.0190 105.7478 0000438 274.2982 228.0255  1.00271920  5074

Track THURAYA 4 in real time with AllMySat

Download on the App Store